Location: Presov
(49.0000°N, 21.2500°E)
Time: 04:23:31
(UTC+02:00)

ISS - Pass Details

Date: 26 March 2019
Orbit: 408 x 410 km, 51.6° (Epoch: 20 April)

Event Time Altitude Azimuth Distance (km) Brightness Sun altitude
Rises 21:00:52 0° 281° (W) 2,338 0.9 -28.1°
Reaches altitude 10° 21:03:00 10° 286° (WNW) 1,475 -0.2 -28.4°
Enters shadow 21:03:47 16° 290° (WNW) 1,168 -0.8 -28.5°
